Probability
2 2 2 2 2 2 1 1 1 0 0 0 0 0 1 0 0 1 2 2 1 1 0 0 0 0 0 1 2 2 2 2 2 1 2 3 5 6
4 4 3 2 2 2 2 2 3 2 1 0 0 0 1 0 0 1 2 2 2 1 0 0 0 0 0 0 1 1 1 1 1 1 1 2 3 4
5 4 3 3 2 2 2 4 5 5 3 1 0 0 0 0 1 1 1 1 1 1 0 0 0 0 0 0 0 0 0 0 0 0 1 1 1 1
7 6 5 4 4 4 4 5 6 6 4 1 0 0 0 1 2 2 1 0 0 0 0 0 0 0 0 0 0 0 0 0 0 0 0 0 0 0
10 8 7 7 6 5 6 6 5 5 3 1 0 0 0 1 2 2 1 0 0 0 0 0 0 0 0 0 0 0 0 0 0 0 0 0 0 0
10 10 10 9 8 7 6 5 5 5 3 1 0 0 0 0 1 1 1 0 0 0 0 0 0 0 0 0 0 0 0 0 0 0 0 0 0 0
9 10 12 11 9 6 5 5 6 6 5 2 1 1 0 0 0 0 0 0 0 0 1 1 0 0 0 0 0 0 0 0 0 0 0 0 0 0
12 12 12 11 8 6 5 5 6 6 6 5 3 2 1 0 0 0 0 0 0 0 1 2 1 0 0 0 0 0 0 0 0 0 0 0 0 0
13 12 11 9 8 7 5 4 5 6 6 5 3 2 1 0 0 0 0 1 1 1 1 2 2 1 1 0 0 0 0 0 0 0 0 0 0 0
11 10 9 8 7 7 6 4 3 3 3 3 1 1 0 0 0 0 0 1 1 2 2 2 3 3 2 1 0 0 0 0 0 0 0 0 0 0
8 8 7 7 6 5 5 3 1 1 1 1 0 0 0 0 0 0 0 1 2 3 2 2 2 3 2 1 0 0 0 0 0 0 0 0 0 0
6 7 7 6 5 3 3 2 1 0 0 0 0 0 0 0 0 0 0 1 2 2 2 2 3 2 1 0 0 0 0 0 0 0 0 0 0 0
6 6 6 6 4 2 3 3 2 0 0 0 0 0 0 0 0 0 0 0 1 1 2 3 3 1 0 0 0 0 0 0 0 0 0 0 0 0
6 6 6 5 3 1 1 2 1 0 0 0 0 0 0 0 0 0 0 0 0 0 1 2 2 1 0 0 0 0 0 0 0 0 0 0 0 0
4 4 5 4 2 0 0 1 1 0 0 1 1 1 1 1 1 0 0 1 0 0 0 1 1 1 1 1 0 0 0 0 0 0 0 0 0 0
2 3 2 1 1 0 0 0 1 1 1 2 2 2 2 2 1 0 0 0 0 0 0 1 1 2 3 2 1 1 0 0 0 0 0 0 0 0
2 2 2 1 1 2 1 0 1 1 2 2 2 2 2 2 1 0 0 0 0 0 0 1 3 4 4 3 3 2 1 1 0 0 0 0 0 0
1 1 2 3 3 3 2 1 0 1 1 1 1 1 1 1 0 0 0 0 0 0 0 1 3 4 4 3 3 3 2 2 1 1 0 0 0 0
0 1 2 3 3 3 2 1 0 0 0 0 0 0 0 0 0 0 0 0 0 0 0 0 1 2 3 2 2 2 2 2 2 2 2 1 1 0
0 1 2 2 2 2 1 0 0 0 0 0 0 0 0 0 0 0 0 0 0 0 0 0 0 1 1 1 1 0 1 1 2 3 3 2 1 1
0 0 1 1 1 1 0 0 0 0 0 0 0 0 0 0 0 0 0 0 0 0 0 0 0 0 0 0 0 0 0 0 1 1 2 2 1 1
0 0 0 0 0 0 0 0 0 0 0 0 0 0 0 0 0 0 0 0 0 0 0 0 0 0 0 0 0 0 0 0 0 0 0 1 1 1
0 0 0 0 0 0 0 0 0 0 0 0 0 0 0 0 0 0 0 0 0 0 0 0 0 0 0 0 0 0 1 1 1 0 0 0 1 0
Wind_Speed
4 3 3 2 2 3 3 3 3 3 4 3 2 3 2 3 4 3 3 6 8 8 9 10 10 10 10 9 9 8 8 8 9 9 9 9 8 8
2 2 2 2 2 2 2 2 3 4 4 3 3 3 3 3 4 3 4 7 7 8 8 8 9 9 9 9 8 8 8 8 8 8 8 8 8 8
2 2 3 3 2 2 2 2 3 3 4 4 2 2 2 3 2 2 3 4 4 7 7 8 8 9 9 8 8 8 8 8 8 8 8 8 8 8
3 3 3 2 3 3 2 2 2 3 3 4 3 2 3 3 3 3 3 4 3 6 7 7 7 7 7 8 7 7 7 7 8 8 9 9 9 8
4 4 4 3 4 3 3 3 2 2 2 3 3 2 2 2 1 2 3 3 4 4 5 6 6 6 6 6 6 7 7 7 8 8 8 8 8 8
4 4 4 4 5 4 3 3 2 2 1 2 2 2 2 1 0 1 2 2 3 3 3 3 4 5 6 6 6 7 7 7 8 8 8 8 7 7
4 4 4 5 6 5 3 3 3 2 2 2 2 2 2 1 2 2 3 3 3 2 1 2 2 2 4 6 7 7 7 7 7 7 7 7 7 8
4 4 4 5 5 5 5 5 5 4 4 3 2 3 3 3 2 2 2 2 3 2 2 3 2 3 3 3 6 7 7 8 8 7 7 7 7 7
4 3 3 3 3 3 4 5 5 6 7 5 4 5 4 4 3 3 3 3 4 3 1 3 2 3 3 4 6 7 7 7 8 7 7 7 6 6
4 4 4 3 3 3 3 3 4 4 5 4 5 5 5 4 5 4 4 3 3 2 2 3 2 3 3 3 5 6 6 7 7 7 7 6 6 6
3 3 3 4 5 4 2 3 3 4 4 4 5 5 5 5 3 1 1 1 2 3 1 2 2 2 2 2 3 5 6 6 7 7 7 6 5 5
3 3 4 4 4 4 3 3 3 4 2 2 2 3 3 3 3 3 3 2 2 2 2 2 1 0 2 2 2 2 2 4 5 6 6 6 5 3
2 3 3 4 4 4 4 4 5 4 2 2 2 2 2 2 2 2 3 3 3 3 3 2 2 1 1 2 2 2 1 1 1 2 4 5 5 4
3 3 3 4 4 4 3 4 4 2 1 1 1 2 2 3 3 3 3 3 4 5 4 3 2 2 2 1 2 2 1 1 1 1 1 2 3 4
2 3 4 3 2 2 3 2 1 1 1 1 3 3 3 3 2 2 2 2 2 3 3 3 3 2 2 2 2 1 1 2 1 1 1 1 2 2
2 2 2 2 1 1 1 1 1 1 2 2 3 2 2 2 2 2 2 1 1 2 2 2 3 3 2 3 2 2 2 1 1 2 1 1 1 2
1 1 1 2 2 2 2 2 1 1 1 1 1 1 1 2 2 2 2 1 2 2 2 2 1 1 2 2 2 2 2 1 2 2 1 1 2 2
1 0 1 1 1 1 1 2 1 1 1 1 1 1 2 2 2 1 1 2 2 2 2 2 0 1 1 2 3 3 2 2 2 1 1 1 2 2
1 1 1 1 1 1 1 1 1 2 1 1 1 2 2 1 1 1 2 1 1 1 2 1 1 2 1 2 3 2 3 2 1 1 2 2 2 3
1 1 2 2 1 1 2 2 2 1 1 1 1 1 1 1 1 1 1 1 1 1 1 1 1 2 3 3 3 2 3 3 2 2 2 1 2 2
2 2 2 2 1 1 1 1 1 1 1 1 1 1 1 1 1 1 1 1 1 1 1 2 3 2 1 1 0 2 2 2 3 2 2 1 1 1
2 2 2 1 1 1 1 1 1 1 1 1 1 1 1 1 1 1 1 1 1 1 1 2 2 1 1 1 1 2 2 2 2 2 1 2 2 2
2 2 1 1 1 1 0 0 0 1 0 0 1 1 1 1 1 1 1 0 0 0 0 1 2 1 0 1 1 1 1 1 1 2 2 3 1 2
Wind_Direction
236 239 240 252 235 214 206 194 193 245 267 254 249 243 231 226 229 229 231 231 232 233 234 234 235 237 238 238 239 238 239 242 245 248 252 255 257 260
234 237 247 251 255 244 226 214 201 209 247 251 238 244 235 244 239 238 244 245 242 238 235 237 240 239 238 239 240 236 236 238 241 244 248 250 252 254
248 236 248 251 251 250 239 225 221 207 239 269 257 245 229 240 253 252 256 251 250 240 234 237 242 244 241 237 236 236 237 239 242 244 245 248 250 253
245 241 249 254 259 253 244 243 238 219 217 259 277 264 247 237 233 244 260 260 251 249 241 237 236 239 238 232 234 234 236 241 244 246 247 248 249 251
236 237 246 238 249 254 244 248 249 244 217 231 262 261 260 247 254 269 269 273 260 257 237 235 233 234 232 232 228 228 233 239 244 247 250 251 250 250
243 238 238 231 238 243 244 240 240 243 232 235 256 263 266 265 221 268 288 280 274 270 257 234 234 233 238 238 235 233 231 235 241 245 248 249 248 249
256 250 246 246 246 242 243 231 225 228 225 228 247 270 274 275 254 250 265 284 279 254 253 258 248 248 241 243 238 239 237 237 240 243 243 244 245 247
250 262 261 255 254 251 249 239 218 215 216 215 236 237 247 249 254 252 252 273 277 260 214 261 229 246 244 236 242 241 239 240 238 237 240 243 243 243
234 246 267 269 265 245 251 256 247 238 225 213 217 232 232 224 229 247 240 234 243 252 199 261 254 249 249 250 243 237 237 239 237 239 241 240 241 241
237 231 236 251 251 238 227 237 248 253 241 227 220 231 232 221 214 223 232 245 263 265 183 231 251 250 259 252 247 236 240 243 240 239 237 238 241 242
259 251 239 236 250 230 210 225 255 274 267 246 241 246 243 230 207 188 234 234 273 274 223 208 247 261 269 266 270 253 249 249 246 244 241 239 238 235
281 270 257 245 241 213 206 210 235 256 267 291 286 285 265 248 227 203 204 209 229 260 241 195 231 216 304 289 283 290 266 259 248 243 240 237 230 215
268 270 265 262 253 236 221 214 228 237 235 232 251 273 283 273 259 234 210 198 208 237 232 179 196 188 204 283 303 291 265 261 252 251 242 239 232 209
260 268 268 266 258 242 229 240 248 239 208 214 236 251 256 262 261 248 237 229 224 229 227 182 187 191 185 228 283 301 300 267 208 213 231 255 250 239
277 292 293 277 253 251 253 260 252 214 205 226 240 250 249 251 259 266 271 258 260 254 238 205 190 188 180 202 227 247 289 301 252 220 225 232 233 222
315 315 314 311 327 323 313 298 263 226 219 235 246 260 273 271 253 239 246 248 261 290 282 242 214 193 205 219 205 233 223 234 260 253 243 243 247 229
291 347 6 10 4 350 336 317 310 327 286 269 257 270 277 269 262 242 232 226 214 239 280 293 266 224 208 196 205 228 233 234 239 235 208 250 260 243
148 181 266 277 271 282 287 300 322 322 296 277 254 250 258 265 266 254 236 219 222 232 239 247 217 32 359 302 222 216 231 232 241 235 206 214 262 269
149 236 251 255 260 265 273 277 282 279 275 267 259 252 253 256 254 250 243 230 236 241 243 236 194 170 206 270 287 223 210 235 227 238 226 213 233 259
245 250 255 260 258 258 261 267 274 285 290 287 287 281 256 241 242 260 255 227 224 241 282 296 245 214 207 216 241 270 224 210 211 225 240 244 256 269
266 274 267 262 263 261 262 261 264 273 276 269 278 272 262 243 256 260 254 242 217 208 243 272 269 267 213 107 26 298 295 256 216 206 203 200 289 309
252 263 271 276 268 264 272 272 283 301 312 308 292 287 286 264 264 263 224 195 227 232 255 288 321 6 77 133 230 267 294 323 339 340 296 187 188 214
230 240 250 263 275 275 259 264 326 334 321 291 295 296 311 314 286 277 285 253 209 282 316 344 358 16 25 168 215 261 285 306 355 13 347 333 289 252